Powrót do katalogu

ORBCOMM FM 12

AktywnyŁącznośćLEO
NORAD 25115·PAYLOAD·🇺🇸 United States

Wystrzelony Dec 23, 1997 z Cape Canaveral Space Force Station

Loading…

Następne Przeloty (najbliższe 24 godziny)

TLE

ŚwieżeSource: Space-Track

Epoka: Sep 14, 2026, 05:58 UTC

1 25115U 97084D   26257.24881055  .00000718  00000-0  23578-3 0  9991
2 25115  45.0158 349.4895 0002881 330.4251  29.6438 14.46898260507000

Śledź ORBCOMM FM 12 w czasie rzeczywistym z AllMySat

Download on the App Store